Wind_Speed
10 9 10 11 11 13 14 14 15 15 16 17 19 21 20 18 15 9 1 5 2 2 5 6 4 6 3 2 2 2 4 2 1 4 3 4 4 4 3 5 6 10 7 5 4 7 12 9 7 8 2 0 5 7
15 13 12 11 12 13 13 14 14 14 14 16 17 17 19 16 13 11 1 3 6 4 4 4 8 11 7 4 4 2 2 2 2 2 2 2 4 2 3 5 2 6 9 7 9 6 1 8 1 3 3 6 10 10
16 15 15 13 13 13 13 14 14 14 15 15 16 17 17 15 11 7 4 7 2 2 4 4 2 3 9 20 19 4 3 4 2 1 2 2 5 2 4 5 3 5 3 4 2 10 10 7 6 5 5 7 9 8
16 16 15 14 13 13 13 14 15 15 15 14 15 17 16 16 11 5 2 3 1 1 2 1 2 5 4 9 14 24 2 3 1 1 3 4 4 4 4 4 5 2 4 4 6 10 9 10 7 3 5 7 7 6
13 14 15 14 13 13 13 14 15 16 14 13 14 16 16 16 10 5 3 2 3 2 3 5 15 2 4 9 11 14 16 8 4 3 5 5 3 4 5 3 10 5 10 9 12 7 5 9 7 4 8 11 7 8
12 12 14 15 14 14 13 13 14 15 14 14 16 17 17 15 6 0 1 2 5 2 2 3 5 3 2 6 10 11 10 6 4 4 4 4 4 5 6 10 10 11 13 13 13 13 11 12 12 12 13 10 8 9
11 12 11 12 13 13 13 13 12 13 15 16 18 21 18 9 2 1 2 1 4 3 2 4 4 2 3 3 1 2 6 3 4 3 4 4 6 5 8 13 15 12 14 15 15 10 10 13 12 12 13 10 8 11
11 11 11 9 9 10 11 12 11 12 15 16 20 15 7 2 2 0 1 6 3 2 1 3 4 3 2 2 2 1 2 2 4 3 2 3 2 3 5 9 14 17 19 17 15 12 16 14 15 15 11 8 11 12
11 10 11 11 10 10 11 10 9 11 14 16 11 4 3 2 1 2 3 4 5 3 3 2 2 2 3 1 2 1 1 2 2 3 2 2 1 2 10 14 17 14 9 12 11 11 12 14 15 11 12 12 13 10
13 11 11 11 10 10 10 10 8 9 13 10 2 1 1 1 3 3 1 2 2 2 2 3 2 3 1 2 1 2 1 2 2 1 1 1 2 3 12 16 11 11 11 9 7 13 10 8 7 7 9 10 11 7
13 12 11 12 9 10 10 8 6 7 5 1 1 1 0 2 0 1 1 2 2 3 4 4 5 4 2 2 2 1 2 1 3 1 2 2 2 7 14 15 13 11 6 6 5 1 4 5 5 4 1 5 7 7
13 12 11 11 11 9 8 7 5 2 2 2 2 2 1 1 1 2 2 1 4 3 4 3 2 4 2 1 2 2 2 0 4 2 1 1 3 8 11 13 15 16 16 13 13 12 11 9 8 7 7 7 6 7
15 13 12 11 10 7 6 7 6 5 3 2 1 1 2 2 0 4 5 3 3 4 4 3 2 2 2 3 3 1 3 4 2 3 3 3 5 7 7 9 12 12 15 13 12 12 11 9 12 10 5 9 10 9
16 15 15 12 9 9 8 9 8 5 3 2 2 2 5 4 5 5 3 2 1 2 2 2 2 2 1 3 1 3 1 2 3 3 3 2 9 12 10 10 7 11 14 16 13 11 11 10 9 11 9 11 12 11
17 18 16 10 9 11 10 11 10 7 3 2 3 4 7 5 4 4 4 3 2 2 2 2 2 1 1 2 0 2 3 3 2 2 3 7 13 13 12 10 11 9 10 12 12 12 12 12 9 9 11 13 12 13
16 14 5 11 6 5 10 13 8 5 2 3 4 4 5 3 4 3 3 4 2 3 1 1 2 1 2 2 3 4 3 2 2 3 7 10 13 13 13 12 12 10 11 12 15 14 13 12 10 12 13 11 12 12
11 2 15 9 2 8 16 5 4 3 3 4 4 5 6 6 5 4 2 2 2 3 1 1 2 2 1 2 3 1 2 5 9 8 7 12 12 12 11 11 11 14 12 14 15 14 13 12 10 10 9 11 12 12
3 6 9 4 8 10 2 3 2 3 5 5 4 2 3 5 4 4 3 3 3 3 3 2 2 3 3 2 1 3 4 6 4 4 5 6 7 9 9 9 12 14 13 14 13 13 12 11 7 6 9 9 11 9
13 14 12 7 7 2 2 3 3 3 6 3 4 5 4 4 5 5 3 3 2 2 4 2 3 3 2 2 1 1 2 2 2 4 4 7 11 11 15 16 16 14 12 10 9 9 10 11 10 8 6 8 8 6
15 14 13 10 10 2 2 2 5 3 3 2 3 3 3 3 1 1 4 4 4 2 3 3 4 3 3 3 4 3 3 2 4 6 7 7 15 18 16 17 14 15 12 9 7 9 8 7 6 4 4 6 6 4
8 2 7 12 7 6 2 2 3 3 3 3 2 2 3 2 2 3 3 3 3 3 3 3 3 4 6 7 8 6 7 7 6 6 9 10 14 16 18 20 16 11 7 5 4 5 5 5 5 2 3 4 1 1
4 5 4 7 4 4 3 5 2 3 2 3 3 3 3 2 3 3 4 3 3 3 3 4 5 6 6 7 7 9 9 10 14 16 17 14 7 7 9 19 13 4 4 3 4 3 6 4 3 1 2 3 3 5
3 6 3 5 4 4 4 7 3 3 3 2 2 3 3 2 1 3 3 3 3 3 5 4 8 6 5 5 5 9 8 10 9 11 13 10 11 12 16 22 17 5 2 2 1 1 1 4 4 4 4 5 8 10
8 3 3 3 5 3 3 4 3 3 3 3 3 3 3 2 3 2 3 3 2 4 6 8 9 5 2 3 4 8 9 7 12 13 7 9 5 8 17 20 15 10 7 9 10 11 10 9 9 11 12 12 11 12
2 3 3 5 4 3 4 4 4 3 4 6 3 3 3 3 4 3 3 3 3 6 7 7 6 7 7 6 4 9 7 5 6 6 8 9 7 6 15 23 19 18 12 12 11 11 10 10 14 15 16 16 15 17
4 6 6 4 3 5 5 3 6 7 3 3 5 2 3 3 3 4 3 3 3 6 9 10 9 7 6 7 5 4 5 4 5 6 5 9 5 5 8 8 7 14 22 20 16 14 11 10 14 17 20 20 19 21
3 5 4 3 2 1 3 2 3 4 3 3 2 4 4 3 4 2 2 3 3 6 16 18 16 11 8 8 8 6 7 5 4 6 6 6 4 3 4 2 3 4 10 12 13 13 11 10 18 20 21 21 20 18
4 2 5 3 4 3 2 3 3 3 3 2 2 3 2 3 1 1 2 0 5 5 13 16 16 15 12 8 3 4 6 2 4 2 1 3 7 10 10 6 4 7 10 11 13 13 21 26 21 16 17 12 13 17
4 2 3 3 2 3 5 5 3 2 2 3 2 2 2 1 1 1 1 3 6 9 11 11 12 15 11 10 7 6 3 2 1 4 6 6 6 11 12 10 9 10 11 14 15 17 13 12 11 10 11 14 13 13
4 5 3 3 4 5 5 6 3 1 2 1 1 2 2 2 3 4 4 5 8 9 11 11 11 13 10 9 7 7 7 6 4 4 5 5 5 5 7 9 9 9 9 13 15 15 13 11 10 10 11 13 15 17
1 4 3 4 4 6 9 8 3 1 2 2 2 3 3 2 4 4 7 8 9 8 9 8 10 11 11 11 10 6 5 8 9 7 8 11 8 7 8 8 8 8 9 10 11 12 13 13 13 13 14 16 16 17
4 7 4 3 3 3 3 4 4 4 3 2 3 3 2 2 3 2 6 12 12 11 11 10 10 12 14 11 10 8 5 8 12 10 12 14 13 12 12 11 9 9 11 13 13 13 15 15 15 16 17 17 18 18
2 4 6 4 3 2 1 2 3 2 3 3 3 2 2 2 4 1 2 12 12 14 15 16 15 9 10 14 13 11 9 6 7 6 14 17 17 15 14 13 12 12 13 13 14 14 15 16 16 15 15 15 14 13
Wind_Direction
295 310 316 329 325 325 329 332 340 346 350 355 359 3 1 3 7 21 6 40 10 257 270 214 231 218 168 202 253 26 292 169 248 221 227 217 232 211 247 245 207 201 196 205 199 239 259 182 142 224 55 48 284 283
273 284 299 315 324 331 335 335 335 340 343 345 351 355 356 357 4 8 20 320 317 243 297 257 251 246 242 265 249 197 312 277 274 264 240 288 242 237 257 250 155 238 230 232 212 224 357 204 45 98 28 296 282 281
275 274 280 292 306 319 331 334 335 335 337 339 346 350 345 347 353 355 328 331 342 305 280 278 247 203 232 234 218 208 216 233 216 292 310 295 262 197 244 235 252 221 188 243 195 237 235 234 266 277 274 277 289 272
280 273 275 278 289 302 315 326 332 332 332 340 343 344 342 345 345 335 312 301 11 128 299 330 313 280 274 197 195 212 276 115 79 245 262 257 249 206 246 279 249 284 157 240 253 270 272 257 240 272 316 310 282 269
287 278 274 272 278 289 302 312 322 325 328 332 333 338 334 337 336 311 244 220 203 343 305 293 308 286 202 201 208 219 233 241 241 232 228 236 238 237 237 266 254 221 253 254 265 286 312 290 316 259 303 302 279 265
300 291 281 274 272 279 285 297 313 326 323 324 326 326 327 324 323 287 212 236 206 173 314 308 339 267 302 215 248 235 218 202 208 207 224 231 240 229 250 255 255 242 226 235 256 272 270 274 280 272 280 268 261 250
303 303 294 284 274 272 280 287 297 311 320 320 322 322 316 304 213 235 26 22 187 188 303 301 295 252 298 288 197 161 160 178 212 226 232 252 248 197 256 262 263 252 246 245 246 261 270 263 267 277 256 233 260 250
296 306 304 287 284 279 281 279 286 308 318 320 329 327 313 208 199 357 271 221 171 273 257 291 280 286 358 272 266 45 194 200 198 270 245 251 260 237 259 318 311 269 256 253 256 250 255 274 277 265 237 241 263 247
317 308 309 303 285 281 281 271 279 309 317 320 322 354 59 69 81 48 56 165 189 272 304 254 279 325 355 259 267 189 320 247 132 250 251 272 283 245 321 318 304 304 298 295 296 278 270 261 264 255 239 250 244 246
326 314 314 309 299 291 277 266 270 311 316 320 334 269 140 56 104 123 194 190 215 201 225 253 244 257 291 355 296 298 156 295 280 229 259 285 306 303 337 315 294 306 296 293 304 321 319 314 296 272 232 234 243 236
328 317 311 310 299 295 280 257 266 316 323 347 34 60 356 200 133 193 228 224 154 242 214 236 230 279 152 270 285 245 321 275 270 117 293 46 335 293 318 329 339 350 305 284 283 264 41 23 25 356 89 282 263 252
325 319 303 302 303 290 271 239 251 287 301 314 292 292 42 157 145 252 220 193 218 249 192 214 222 212 257 216 252 200 273 236 252 337 114 276 250 275 317 332 340 0 12 17 10 358 4 6 14 28 26 23 354 305
327 319 305 292 299 295 251 229 235 251 278 63 104 178 157 149 157 210 201 202 231 203 202 198 221 212 186 221 242 247 239 232 317 229 151 217 267 294 308 324 335 346 355 2 358 359 351 340 352 4 17 12 356 334
325 320 309 281 277 277 263 225 215 211 185 194 185 284 209 202 235 210 224 228 239 205 193 199 223 220 191 226 213 252 264 273 253 244 168 229 315 319 316 319 320 332 337 335 342 342 338 343 347 345 352 355 342 330
326 320 308 289 275 264 240 201 198 192 177 213 186 230 224 236 262 257 257 271 241 231 181 170 120 258 214 275 190 323 265 250 245 343 325 319 313 314 313 314 309 310 315 313 320 329 329 333 339 327 335 344 335 324
329 326 24 333 280 245 185 172 168 186 222 220 230 250 233 263 256 226 232 251 191 151 121 118 107 230 264 268 241 232 275 320 17 310 307 300 303 307 313 312 304 297 293 293 296 305 313 325 331 321 318 317 329 324
330 302 347 342 261 173 162 143 163 220 249 227 236 233 260 283 262 265 235 248 152 180 238 153 186 237 130 239 245 233 312 312 306 300 290 291 297 293 299 294 295 299 292 288 288 292 301 308 315 312 310 325 325 318
274 317 351 128 132 147 194 188 185 246 249 239 240 241 215 240 255 237 227 183 169 170 175 219 130 208 230 245 251 358 318 324 308 304 302 301 304 317 310 297 295 293 290 284 284 289 293 295 305 308 310 316 317 318
293 287 285 275 210 282 220 204 196 255 246 249 247 241 246 252 242 249 232 160 160 125 138 176 213 214 225 203 270 159 244 264 288 307 287 283 286 294 318 314 312 306 297 289 291 292 294 283 277 280 298 308 297 310
297 281 257 231 188 237 245 223 200 261 269 267 235 235 237 247 276 189 155 155 149 157 186 218 219 188 195 195 186 212 231 291 309 308 303 311 318 322 318 311 296 298 293 290 269 271 271 283 258 258 293 281 290 305
312 305 174 168 188 239 268 238 216 237 271 259 278 232 256 192 198 182 165 159 181 220 224 206 194 188 194 193 213 225 258 265 275 278 290 300 312 311 305 322 314 288 278 275 275 271 266 284 275 303 290 278 247 130
260 167 132 187 214 212 261 223 237 289 261 268 277 229 246 219 189 188 140 184 226 224 193 176 185 187 193 211 226 238 265 287 289 288 294 299 290 303 313 326 319 279 267 265 264 296 302 298 324 322 218 188 130 124
242 198 201 187 222 202 256 168 220 217 251 251 258 241 221 206 147 156 208 224 251 202 176 186 182 172 190 218 252 266 271 286 293 303 317 319 293 291 310 335 345 349 83 70 301 309 43 55 64 100 117 125 122 109
193 218 216 208 202 250 202 193 220 237 247 243 231 254 182 142 160 210 247 232 216 164 179 179 170 159 169 238 254 266 282 286 304 311 349 355 352 351 333 339 356 42 75 85 75 74 82 66 77 80 87 89 93 96
171 218 202 230 209 221 240 190 205 225 241 207 221 229 177 172 188 206 246 258 196 190 191 173 184 199 213 227 253 271 287 292 307 316 10 30 49 68 28 21 32 45 62 71 65 70 69 72 73 78 87 89 92 94
209 199 200 214 192 223 199 211 201 213 240 246 218 109 165 171 203 232 227 223 202 188 183 184 190 189 224 232 253 273 307 309 310 312 20 31 32 117 76 56 29 34 57 63 57 52 55 83 95 87 78 71 85 96
238 233 207 220 273 291 265 273 262 252 235 227 157 167 179 215 221 237 256 211 202 197 190 185 186 195 212 219 233 260 291 295 283 313 332 29 46 46 198 197 77 66 55 23 19 25 28 78 93 89 88 81 80 81
250 240 229 174 196 207 273 253 223 238 232 188 153 185 222 210 235 205 230 175 185 158 174 188 199 207 212 226 242 306 312 305 318 16 352 65 45 36 28 31 356 262 275 313 339 16 86 120 120 92 65 73 103 103
233 223 207 243 220 243 220 226 248 249 176 169 186 235 246 231 282 234 229 191 169 158 160 176 200 211 225 245 257 266 217 240 292 66 46 39 33 24 24 35 46 55 57 60 89 107 111 109 105 81 73 94 101 116
232 190 216 226 216 224 224 201 232 244 204 234 306 297 256 245 250 243 214 182 181 190 185 180 174 184 202 206 207 210 230 225 208 120 108 74 66 72 53 51 50 53 62 75 86 107 120 110 95 81 88 87 95 101
207 187 229 234 251 244 236 237 251 264 219 213 201 245 265 303 293 234 210 201 184 174 173 169 174 186 190 191 195 200 195 198 177 156 135 132 116 102 96 84 83 81 77 71 72 87 98 94 94 95 96 96 96 101
202 206 209 236 253 245 202 193 198 212 220 222 237 211 222 211 251 242 196 169 168 182 187 181 186 194 195 191 200 197 177 175 181 184 174 158 146 136 125 115 106 100 94 90 90 89 87 87 91 97 102 103 105 106
215 228 225 266 259 249 122 186 186 217 202 218 231 221 236 220 242 259 230 198 192 193 189 195 203 203 200 195 193 195 203 197 208 224 190 175 166 157 148 139 134 127 117 109 105 102 100 100 101 102 105 108 110 112
Height
832 831 829 828 827 825 823 820 818 816 814 811 808 805 801 798 795 794 794 793 794 789 781 780 779 779 781 781 780 782 780 779 777 777 773 765 770 760 763 751 753 755 762 763 769 771 770 728 738 745 730 729 730 730
828 827 826 825 824 823 821 819 817 815 813 811 808 805 802 799 797 795 795 794 793 794 782 780 778 777 777 777 781 783 781 782 775 775 774 772 767 767 761 758 755 759 744 745 747 741 729 728 724 726 727 731 729 730
823 823 823 822 822 821 819 817 815 813 811 809 807 805 802 799 798 796 796 794 793 792 781 776 770 772 772 773 779 781 779 775 775 776 772 770 771 762 760 753 750 745 745 744 748 726 729 727 725 726 726 726 725 725
819 818 818 818 818 818 816 815 813 811 809 807 805 803 800 798 796 796 795 795 795 795 787 769 769 770 769 769 771 772 773 775 776 777 772 767 766 757 750 746 748 742 747 742 740 729 727 723 725 724 723 721 722 722
815 814 814 814 814 814 813 812 811 808 806 805 803 801 799 796 794 794 794 794 794 795 785 774 768 765 765 766 768 770 772 773 774 773 770 766 757 758 748 749 740 740 739 741 733 723 729 725 722 722 721 717 717 718
812 811 810 810 810 810 809 809 808 806 804 802 800 798 796 794 793 793 793 793 793 793 791 778 769 764 764 764 765 765 766 770 771 768 761 753 746 748 741 736 728 727 727 724 723 718 721 720 719 718 717 713 713 713
808 808 806 805 805 805 805 805 805 803 802 799 797 794 792 790 791 793 793 794 792 794 791 782 768 762 762 760 759 760 764 764 763 761 757 748 742 747 736 734 723 722 720 717 715 718 718 713 712 708 709 708 709 708
805 804 803 802 801 802 802 801 801 800 799 796 793 790 788 788 790 792 792 792 793 793 792 786 769 762 761 755 754 760 757 761 759 754 751 747 743 742 736 728 725 716 711 711 710 709 708 706 705 703 703 704 703 700
800 800 800 799 798 798 798 797 797 797 795 793 791 790 789 790 791 792 792 792 793 797 789 786 774 760 760 756 758 759 760 755 756 752 750 749 741 744 743 739 731 725 718 710 706 705 702 700 697 698 699 699 697 694
797 796 796 796 794 794 794 793 794 794 792 790 789 790 788 792 792 793 793 793 793 792 791 784 777 766 763 760 754 759 759 756 753 747 747 748 748 745 742 738 730 723 718 711 704 700 699 695 693 693 693 692 692 691
794 793 793 793 791 791 790 790 791 791 790 789 789 789 791 791 792 792 789 789 789 786 782 775 771 763 763 761 759 759 756 758 753 746 748 756 756 748 741 735 727 720 714 708 706 704 700 697 695 693 692 693 692 691
792 790 790 790 788 787 787 787 788 789 789 789 790 790 790 790 789 788 782 783 782 772 767 764 761 767 761 762 759 757 755 758 750 746 748 754 750 747 741 735 729 721 714 711 707 705 704 701 698 696 697 696 695 693
789 787 786 786 785 784 784 785 786 787 787 788 789 789 786 788 791 784 773 770 770 761 758 758 757 759 761 762 756 757 754 748 745 749 750 751 745 741 738 733 728 724 719 715 712 709 707 705 700 698 697 696 695 692
786 784 782 782 781 781 781 783 784 785 786 785 784 790 779 775 772 759 755 751 750 752 752 755 754 756 756 756 750 751 744 747 742 736 743 743 740 737 734 732 728 724 721 717 714 711 708 705 702 699 697 695 693 690
782 780 778 777 777 777 778 780 782 783 784 782 782 777 768 759 756 753 752 752 748 749 750 753 754 756 754 754 755 752 750 742 741 739 743 740 737 735 732 730 727 723 720 718 715 711 708 705 702 699 696 692 692 689
780 777 775 774 774 774 775 778 780 782 783 781 777 768 759 759 750 750 749 746 746 749 753 750 752 753 753 754 753 746 744 740 748 746 743 740 735 732 728 726 724 722 719 715 713 710 707 703 701 697 694 692 689 688
778 777 776 773 772 774 776 777 779 780 776 770 764 761 761 757 753 747 747 745 746 746 744 751 751 750 754 752 748 749 749 749 746 743 741 737 734 730 725 722 718 716 715 712 710 707 705 703 701 697 693 690 688 685
779 778 776 776 776 777 777 776 777 775 769 760 760 752 754 750 745 743 744 744 745 746 746 745 747 749 747 748 744 749 748 748 745 742 739 734 730 727 723 719 715 712 709 707 705 703 700 699 697 694 692 689 687 684
776 776 776 776 776 776 775 775 775 768 758 754 752 750 749 743 739 739 739 742 743 743 744 746 747 745 744 747 747 749 750 748 745 741 736 731 727 723 718 714 708 705 703 703 701 699 697 697 694 692 690 688 685 683
770 770 770 772 774 773 773 770 771 766 756 747 747 744 740 735 736 736 738 739 740 743 742 742 738 738 739 741 744 745 744 744 744 739 732 728 723 718 713 707 702 699 697 696 696 696 695 692 689 688 688 687 684 681
767 765 765 769 772 772 769 764 762 759 751 747 739 738 734 734 734 736 736 738 737 734 732 734 736 735 737 739 739 741 741 741 739 737 730 724 720 715 708 701 696 693 692 692 691 691 689 687 686 686 685 684 683 682
766 766 766 768 768 767 766 761 759 755 753 741 739 734 729 729 730 731 735 734 729 723 726 729 731 732 735 737 737 738 738 737 735 731 726 723 719 713 706 697 690 687 687 687 688 687 687 686 686 685 685 683 683 683
765 765 765 765 764 764 760 756 755 749 745 736 733 730 726 725 727 732 729 726 720 720 722 724 726 729 732 735 736 736 735 734 731 726 723 720 715 711 706 695 689 686 686 687 687 688 687 686 686 686 685 685 685 686
762 760 759 758 758 754 749 748 747 743 739 735 730 723 721 726 730 728 722 718 715 717 719 721 724 729 733 734 734 731 732 731 728 723 721 719 715 714 707 696 692 690 689 689 689 689 689 689 689 689 688 689 690 691
758 758 758 756 750 748 742 738 736 735 731 723 724 718 720 724 721 722 718 711 712 713 715 719 723 725 725 726 728 729 729 728 727 723 721 720 718 715 709 701 697 696 694 693 693 693 693 693 693 693 693 694 695 696
753 747 750 738 736 737 732 727 727 724 721 716 715 714 716 718 718 714 710 704 706 707 711 715 718 723 726 726 726 726 726 726 725 721 720 720 719 717 715 711 705 703 701 700 700 699 698 698 698 698 700 701 703 704
746 738 737 737 736 734 729 728 724 721 715 711 708 713 715 715 709 703 700 701 702 703 705 709 713 717 718 721 724 725 725 724 723 722 721 720 718 717 716 714 712 710 708 706 705 705 704 702 704 706 707 708 709 711
738 736 732 730 732 731 728 724 720 714 709 708 711 713 709 708 703 697 697 698 700 701 704 709 712 714 717 720 722 723 723 722 721 720 720 721 719 718 716 715 713 712 712 711 710 709 708 710 711 713 714 716 718 719
734 731 731 729 728 726 722 717 710 704 704 708 708 704 701 699 697 696 697 698 699 701 703 707 710 713 716 717 720 721 722 722 721 720 720 720 720 721 719 718 717 716 716 716 715 716 718 719 720 720 720 722 723 724
726 727 725 723 721 717 708 706 704 702 704 704 704 703 701 698 696 695 696 697 699 699 700 703 706 711 713 715 717 719 720 720 720 720 721 722 724 725 724 723 722 722 722 722 723 724 725 725 726 726 726 727 728 730
722 724 722 717 712 703 701 700 702 702 702 702 702 702 698 697 694 692 693 694 696 698 701 703 705 708 710 712 713 715 716 718 719 720 722 723 725 726 727 727 728 728 727 727 727 729 730 730 731 732 733 734 736 736
718 717 716 712 705 697 698 699 698 699 698 700 698 699 698 697 695 689 688 690 694 697 698 701 702 703 706 709 710 712 713 715 717 719 721 722 725 727 728 730 731 732 732 733 733 734 734 735 737 739 740 742 744 746
713 711 708 707 701 696 696 696 697 696 697 696 694 694 693 691 690 686 685 687 689 691 694 696 698 701 702 705 707 709 711 713 715 716 719 721 724 726 728 730 733 734 736 737 738 739 740 742 743 745 747 748 750 752